Location: Altoona
(40.5167°N, 78.4000°W)
Time: 13:32:01
(UTC-05:00)

ATLAS 3B R/B - Pass Details

Date: 21 August 2017
Orbit: 1002 x 1193 km, 63.8° (Epoch: 22 November)

Event Time Altitude Azimuth Distance (km) Brightness Sun altitude
Rises 21:41:41 0° 327° (NNW) 3,856 6.9 -17.9°
Reaches altitude 10° 21:44:24 10° 331° (NNW) 2,872 5.9 -18.4°
Maximum altitude 21:51:07 66° 53° (NE) 1,111 2.7 -19.4°
Enters shadow 21:54:03 34° 124° (SE) 1,603 3.1 -19.9°
